Weather observations for the past three days for
Otis Air National Guard Base
Metric (Imperial)
Date Time (edt) Wind (kph) Vis. (km) Weather Sky Cond. Temperature (ºC) Relative Humidity Wind Chill (°C) Heat Index (°C) Pressure Precipitation (cm)
Air Dwpt 6 hour altimeter (cm) sea level (mb) 1 hr 3 hr 6 hr
Max. Min.
04 21:56 SW 24 16.09 Fair CLR 11 8 82% 76.02 0.0
04 20:57 SW 19 16.09 Fair CLR 12 7 72% 75.95 0.0
04 20:56 SW 19 16.09 NULL NULL 12 7 72% 75.95 0.0
04 19:56 SW 26 G 41 16.09 Fair CLR 12 5 63% 75.9 0.0
04 18:56 SW 43 G 54 0.00 Windy NULL 13 4 55% 75.82 0.0
04 17:56 SW 35 G 41 16.09 Fair and Breezy CLR 14 4 51% 75.84 0.0
04 16:56 SW 41 G 54 16.09 Fair and Breezy CLR 16 4 45% 75.82 0.0
04 15:56 SW 43 G 56 16.09 Fair and Windy CLR 17 3 39% 75.79 0.0
04 14:56 SW 44 G 67 16.09 Fair and Windy CLR 17 3 39% 75.84 0.0
04 13:56 SW 46 G 56 16.09 Fair and Windy CLR 17 6 49% 75.82 0.0
04 12:56 SW 43 G 52 16.09 Fair and Windy CLR 17 5 45% 75.84 0.0
04 11:56 SW 33 G 54 16.09 Fair and Breezy CLR 17 4 42% 75.87 0.0
04 10:56 SW 31 G 46 16.09 Fair CLR 15 4 48% 75.92 0.0
04 09:56 SW 30 G 37 16.09 Fair CLR 14 6 59% 75.95 0.0
04 08:56 SW 30 G 41 16.09 Fair CLR 13 4 55% 75.95 0.0
04 07:56 SW 30 G 41 16.09 Fair CLR 12 5 63% 75.97 0.0
04 06:56 SW 11 16.09 Fair CLR 9 6 82% 8 75.97 0.0
04 05:45 SW 13 16.09 Partly Cloudy SCT080 9 4 71% 7 75.92 0.0
04 04:45 SW 13 16.09 Mostly Cloudy BKN075 9 5 76% 7 75.9 0.0
04 03:55 W 15 16.09 Mostly Cloudy BKN070 8 4 76% 6 75.9 0.0
04 02:45 W 15 16.09 Fair CLR 8 4 76% 6 75.9 0.0
04 01:45 SW 17 16.09 Fair CLR 7 4 81% 4 75.9 0.0
04 00:45 SW 11 16.09 Fair CLR 4 1 81% 2 75.87 0.0
03 23:45 Calm 16.09 Fair CLR 4 -1 70% 75.87 0.0
03 22:45 Calm 16.09 Fair CLR 4 -2 65% 75.84 0.0
03 21:45 Calm 16.09 Fair CLR 6 -2 57% 75.84 0.0
03 20:45 NW 9 16.09 A Few Clouds FEW075 9 -4 40% 8 75.77 0.0
03 19:45 NW 19 G 31 16.09 Overcast OVC080 11 -4 35% 75.69 0.0
03 18:56 NW 19 G 31 16.09 Overcast OVC080 11 -3 38% 75.62 0.0
03 17:56 NW 19 16.09 Overcast OVC075 12 -3 35% 75.54 0.0
03 16:56 NW 15 16.09 Overcast OVC075 12 -1 41% 75.51 0.0
03 15:56 NW 26 G 39 16.09 Overcast SCT060 OVC080 12 -1 41% 75.46 0.0
03 13:56 NW 30 G 48 16.09 Overcast BKN033 OVC050 11 2 54% 75.44 0.0
03 12:56 NW 28 G 37 16.09 Overcast BKN029 OVC038 9 3 66% 6 75.44 0.0
03 11:56 NW 28 G 43 16.09 Overcast BKN027 BKN032 OVC065 10 4 67% 7 75.41 0.0
03 10:56 NW 22 G 37 16.09 Mostly Cloudy SCT030 BKN037 BKN048 9 3 66% 6 75.39 0.0
03 09:56 NW 20 16.09 Mostly Cloudy BKN026 10 4 67% 8 75.39 0.0
03 08:56 NW 20 G 28 16.09 Mostly Cloudy SCT016 BKN120 8 5 82% 5 75.41 0.0
03 07:56 NW 11 16.09 Overcast FEW024 OVC110 7 6 93% 5 75.49 0.0
03 06:56 NW 11 16.09 Overcast SCT016 OVC085 7 6 93% 5 75.49 0.0
03 05:55 NW 7 16.09 Light Rain OVC048 7 6 93% 6 75.51 0.0
03 04:55 N 11 16.09 Light Rain OVC055 8 6 87% 6 75.51 0.0
03 03:55 N 9 16.09 Light Rain FEW036 BKN065 OVC080 8 7 93% 7 75.57 0.0
03 02:55 NW 9 16.09 Light Rain FEW013 BKN038 OVC060 9 8 94% 8 75.62 0.0
03 01:55 NW 7 14.48 Light Rain FEW004 BKN009 OVC055 9 8 94% 8 75.67 0.0
03 00:55 Calm 12.87 Light Rain SCT046 BKN055 OVC070 9 8 94% 75.72 0.0
02 23:55 S 6 16.09 Rain OVC035 9 8 94% 75.77 0.0
02 22:55 Calm 16.09 Light Rain SCT004 OVC024 9 9 100% 75.79 0.0
02 21:55 Calm 8.05 Rain Fog/Mist FEW004 BKN022 OVC050 9 9 100% 75.84 0.0
02 20:55 S 11 14.48 Light Rain BKN005 OVC020 9 9 100% 8 75.87 0.0
02 19:56 S 7 9.66 Light Rain Fog/Mist BKN026 OVC037 9 8 94% 8 75.87 0.0
02 18:56 S 15 16.09 Overcast FEW029 BKN039 OVC060 11 7 77% 75.84 0.0
02 17:56 S 15 16.09 Overcast FEW019 OVC070 12 7 72% 75.84 0.0
02 16:56 S 15 16.09 Overcast FEW022 OVC050 12 7 72% 75.87 0.0
02 15:56 S 17 16.09 Overcast BKN047 OVC055 12 6 67% 75.9 0.0
02 14:56 S 19 16.09 Partly Cloudy FEW022 SCT110 12 7 72% 75.95 0.0
02 13:56 S 19 16.09 A Few Clouds FEW120 12 7 72% 75.97 0.0
02 12:56 S 19 16.09 A Few Clouds FEW120 14 3 48% 75.95 0.0
02 11:55 SW 26 16.09 Partly Cloudy SCT110 14 6 59% 76 0.0
02 10:55 SW 20 16.09 A Few Clouds FEW110 15 6 55% 76 0.0
02 09:55 S 26 16.09 Partly Cloudy SCT120 13 6 63% 76.02 0.0
02 08:55 SW 22 16.09 Fair CLR 12 6 67% 76.05 0.0
02 07:55 SW 17 16.09 Fair CLR 11 6 72% 76.02 0.0
02 06:55 S 7 16.09 Fair CLR 8 6 87% 7 76 0.0
02 05:56 S 9 16.09 Fair CLR 5 4 93% 3 76 0.0
02 04:56 S 9 16.09 Fair CLR 6 4 87% 4 75.97 0.0
02 03:56 S 11 16.09 Fair CLR 6 4 87% 4 75.97 0.0
02 02:56 SW 7 16.09 Fair CLR 8 5 82% 7 75.97 0.0
02 01:56 Calm 16.09 Fair CLR 7 4 81% 76 0.0
02 00:56 W 11 16.09 Fair CLR 8 4 76% 6 76 0.0
01 23:56 SW 9 16.09 Fair CLR 8 5 82% 7 76 0.0
01 22:56 W 11 16.09 Fair CLR 8 6 87% 6 75.95 0.0
Date Time (edt) Wind (kph) Vis. (km) Weather Sky Cond. Air Dwpt Max. Min. Relative Humidity Wind Chill (°C) Heat Index (°C) altimeter (cm) sea level (mb) 1 hr 3 hr 6 hr
6 hour
Temperature (ºC) Pressure Precipitation (cm)